Location: Phoenix
(33.4480°N, 112.0730°W)
Time: 23:51:16
(UTC-07:00)

ISS - All Passes

Search period start: 28 February 2015 00:00
Search period end: 10 March 2015 00:00
Orbit: 397 x 408 km, 51.6° (Epoch: 28 February)

Date Brightness Start Highest point End Pass type
(mag) Time Alt. Az. Time Alt. Az. Time Alt. Az.
28 Feb - 09:41:24 10° SW 09:44:37 89° N 09:47:51 10° NE daylight
28 Feb - 11:20:36 10° NW 11:21:29 11° NNW 11:22:18 10° NNW daylight
28 Feb - 16:12:55 10° N 16:15:06 17° NNE 16:17:19 10° ENE daylight
28 Feb - 17:48:36 10° WNW 17:51:41 41° SW 17:54:45 10° SSE daylight
01 Mar - 08:48:44 10° SSW 08:51:43 37° SE 08:54:45 10° ENE daylight
01 Mar - 10:25:57 10° WNW 10:28:16 18° NNW 10:30:32 10° NNE daylight
01 Mar - 15:21:27 10° NNE 15:21:51 10° NNE 15:22:20 10° NE daylight
01 Mar - 16:55:32 10° NW 16:58:46 81° NE 17:02:01 10° SE daylight
02 Mar - 07:56:44 10° S 07:58:52 17° SE 08:01:04 10° E daylight
02 Mar - 09:32:11 10° WSW 09:35:08 32° NW 09:38:04 10° NNE daylight
02 Mar - 16:02:43 10° NNW 16:05:45 35° NE 16:08:47 10° ESE daylight
02 Mar - 17:39:58 10° W 17:41:59 15° SW 17:43:54 10° SSW daylight
03 Mar - 08:38:52 10° SW 08:42:04 71° NW 08:45:17 10° NE daylight
03 Mar - 15:10:11 10° NNW 15:12:36 19° NE 15:15:03 10° E daylight
03 Mar - 16:46:08 10° WNW 16:49:05 33° SW 16:52:02 10° SSE daylight
04 Mar - 07:45:59 10° SSW 07:49:05 47° SE 07:52:12 10° ENE daylight
04 Mar - 09:23:40 10° WNW 09:25:43 15° NNW 09:27:43 10° N daylight
04 Mar - 14:18:08 10° N 14:19:18 12° NNE 14:20:34 10° NE daylight
04 Mar - 15:52:54 10° NW 15:56:08 80° SW 15:59:22 10° SE daylight
05 Mar - 06:53:41 10° S 06:56:08 21° SE 06:58:40 10° ENE daylight
05 Mar - 08:29:39 10° W 08:32:29 27° NW 08:35:16 10° NNE daylight
05 Mar - 14:59:57 10° NNW 15:03:04 43° NE 15:06:10 10° ESE daylight
05 Mar - 16:37:46 10° W 16:39:13 12° SW 16:40:34 10° SSW daylight
06 Mar - 07:36:08 10° WSW 07:39:18 56° NW 07:42:30 10° NE daylight
06 Mar - 14:07:15 10° NNW 14:09:51 22° NE 14:12:30 10° E daylight
06 Mar - 15:43:29 10° WNW 15:46:17 26° SW 15:49:02 10° S daylight
07 Mar - 06:43:04 10° SW 06:46:14 60° SE 06:49:25 10° NE daylight
07 Mar - 08:21:12 10° WNW 08:22:57 14° NNW 08:24:38 10° N daylight
07 Mar - 13:14:56 10° N 13:16:32 13° NNE 13:18:12 10° ENE daylight
07 Mar - 14:50:03 10° NW 14:53:16 63° SW 14:56:27 10° SE daylight
08 Mar - 05:50:30 10° S 05:53:12 25° SE 05:55:57 10° ENE visible
08 Mar - 07:26:56 10° W 07:29:36 23° NW 07:32:15 10° NNE daylight
08 Mar - 13:56:58 10° NW 14:00:09 53° NE 14:03:19 10° ESE daylight
09 Mar - 04:59:04 10° SSE 05:00:12 12° SE 05:01:28 10° ESE visible
09 Mar - 06:33:13 10° WSW 06:36:21 45° NW 06:39:28 10° NE daylight
09 Mar - 13:04:08 10° NNW 13:06:54 26° NE 13:09:42 10° E daylight
09 Mar - 14:40:40 10° WNW 14:43:14 22° SW 14:45:46 10° S daylight
